Weather Service Report


891 
ASUS44 KMEG 261710
RWRTN 
TENNESSEE HOURLY STATE WEATHER ROUNDUP
NATIONAL WEATHER SERVICE MEMPHIS TN
1200 PM CDT SUN JUN 26 2016

TNZ002-004-019-021-049-052-054-088>092-261800-
WEST TENNESSEE
  
CITY           SKY/WX    TMP DP  RH WIND       PRES   REMARKS
MEMPHIS INTL   MOSUNNY   95  72  47 W7        30.11F HX 103           
NWS MEMPHIS      N/A     93 N/A N/A MISG        N/A                   
JACKSON        SUNNY     92  72  51 SW6       30.12F HX  99           
DYERSBURG      CLOUDY    77  72  83 CALM      30.12F THUNDER          
UNION CITY     MOSUNNY   91  77  62 SW8       30.09F HX 105           
PARIS          MOSUNNY   88  72  58 SW7       30.13S HX  94           
LEXINGTON      SUNNY     93  68  43 SW5       30.11F HX  97           
$$

TNZ008-025-027-028-033-062-065-066-261800-
NORTH MIDDLE TENNESSEE
  
CITY           SKY/WX    TMP DP  RH WIND       PRES   REMARKS
NASHVILLE      MOSUNNY   91  69  48 W5        30.13F HX  96           
CLARKSVILLE    SUNNY     91  72  53 SW9       30.11F HX  98           
SMYRNA         SUNNY     91  71  51 CALM      30.14F HX  97           
COOKEVILLE     SUNNY     90  73  58 CALM      30.15F HX  98           
CROSSVILLE     PTSUNNY   84  69  60 S3        30.22F                  
$$

TNZ061-075-076-078-094-096-097-261800-
SOUTH MIDDLE TENNESSEE
  
CITY           SKY/WX    TMP DP  RH WIND       PRES   REMARKS
FAYETTEVILLE   SUNNY     88  72  58 CALM      30.16S HX  94           
TULLAHOMA      SUNNY     88  72  58 VRB3      30.18S HX  94           
WINCHESTER     SUNNY     90  73  58 S6        30.16F HX  98           
MCMINNVILLE      N/A     90  73  58 S7        30.17S HX  98           
COLUMBIA       MOSUNNY   90  77  66 N5        30.13F HX 102           
SHELBYVILLE    MOSUNNY   90  73  58 VRB5      30.16S HX  98           
$$

TNZ017-018-042-046-047-261800-
NORTHEAST TENNESSEE
  
CITY           SKY/WX    TMP DP  RH WIND       PRES   REMARKS
TRI CITIES     MOSUNNY   85  65  51 CALM      30.21F                  
ELIZABETHTON   SUNNY     86  66  51 CALM      30.21F                  
$$

TNZ012-013-036-069-073-074-261800-
CENTRAL EAST TENNESSEE
  
CITY           SKY/WX    TMP DP  RH WIND       PRES   REMARKS
KNOXVILLE      SUNNY     89  67  47 S8        30.16F HX  92           
OAK RIDGE      SUNNY     89  68  49 S6        30.18F HX  93           
GATLINBURG       N/A     90  66  45 VRB5      30.17F HX  92           
MORRISTOWN     SUNNY     88  66  48 VRB6      30.19F HX  90           
$$

TNZ083-085-099-261800-
SOUTHEAST TENNESSEE
  
CITY           SKY/WX    TMP DP  RH WIND       PRES   REMARKS
CHATTANOOGA    MOSUNNY   90  68  48 S7        30.15F HX  94           
$$

SKY/WX REPORTED AS FAIR MEANS FEW OR NO CLOUDS BELOW
12 THOUSAND FEET.

  


892 
ASUS44 KMEG 261710
RWRMEG
MEMPHIS CWA HOURLY WEATHER ROUNDUP
NATIONAL WEATHER SERVICE MEMPHIS TN
1200 PM CDT SUN JUN 26 2016

...WEST TENNESSEE...
  
CITY           SKY/WX    TMP DP  RH WIND       PRES   REMARKS
MEMPHIS INTL   MOSUNNY   95  72  47 W7        30.11F HX 103           
NWS MEMPHIS      N/A     93 N/A N/A MISG        N/A                   
JACKSON        SUNNY     92  72  51 SW6       30.12F HX  99           
LEXINGTON      SUNNY     93  68  43 SW5       30.11F HX  97           
DYERSBURG      CLOUDY    77  72  83 CALM      30.12F THUNDER          
UNION CITY     MOSUNNY   91  77  62 SW8       30.09F HX 105           
PARIS          MOSUNNY   88  72  58 SW7       30.13S HX  94           


...EASTERN ARKANSAS...
  
CITY           SKY/WX    TMP DP  RH WIND       PRES   REMARKS
JONESBORO      LGT RAIN  78  71  79 NW7       30.11F                  
WEST MEMPHIS   MOSUNNY   91  73  55 VRB5      30.09F HX  99           
BATESVILLE     PTSUNNY   91  73  55 S3        30.09F HX 100           
NEWPORT        PTSUNNY   86  78  76 E9        30.11F HX  98           
WALNUT RIDGE   CLOUDY    81  73  78 SE5       30.10F                  
BLYTHEVILLE    TSTM      81  75  82 SE7       30.12S                  
SEARCY         MOSUNNY   93  77  59 S3        30.11F HX 107           
STUTTGART      PTSUNNY   93  73  52 SW6       30.12F HX 102           
PINE BLUFF     MOSUNNY   91  75  59 W6        30.12S HX 101           
MONTICELLO     MOSUNNY   95  75  52 VRB3      30.12F HX 107           


...NORTH MISSISSIPPI...
  
CITY           SKY/WX    TMP DP  RH WIND       PRES   REMARKS
TUPELO         SUNNY     93  68  43 VRB3      30.12F HX  97           
OXFORD         SUNNY     90  68  48 NW6       30.15S HX  93           
BATESVILLE     SUNNY     91  71  50 W5        30.13F HX  97           
OLIVE BRANCH   MOSUNNY  N/A N/A N/A SW8       30.11F                  
TUNICA         MOSUNNY   90  73  58 SW5       30.12F HX  98           
CLARKSDALE     MOSUNNY   91  73  55 W6        30.12S HX 100           
CORINTH        SUNNY     91  70  49 VRB5      30.11F HX  97           
GREENWOOD      MOSUNNY   92  71  50 N3        30.12F HX  98           
COLUMBUS       SUNNY     92  77  61 VRB3      30.10F HX 105           
STARKVILLE     PTSUNNY   86  73  66 S3        30.12S HX  93           
GOLDEN TRIANGL MOSUNNY   97  73  46 CALM      30.19R HX 107           


...SOUTHEAST MISSOURI...
  
CITY           SKY/WX    TMP DP  RH WIND       PRES   REMARKS
KENNETT        CLOUDY    90  73  58 W8G15     30.09F HX  98           
WEST PLAINS    MOSUNNY   87  72  60 W7        30.15S HX  93           
POPLAR BLUFF   CLOUDY    85  72  65 S10       30.09F HX  91           
CAPE GIRARDEAU MOSUNNY   90  73  57 SW8       30.07F HX  98           


...NORTHWEST ALABAMA...
  
CITY           SKY/WX    TMP DP  RH WIND       PRES   REMARKS
MUSCLE SHOALS  SUNNY     92  71  50 CALM      30.14F HX  98           


...MIDDLE TENNESSEE...
  
CITY           SKY/WX    TMP DP  RH WIND       PRES   REMARKS
NASHVILLE      MOSUNNY   91  69  48 W5        30.13F HX  96           
CLARKSVILLE    SUNNY     91  72  53 SW9       30.11F HX  98           
COLUMBIA       MOSUNNY   90  77  66 N5        30.13F HX 102           


...WESTERN KENTUCKY...
  
CITY           SKY/WX    TMP DP  RH WIND       PRES   REMARKS
PADUCAH        MOSUNNY   92  73  53 SW8       30.08F HX 100           
FORT CAMPBELL  SUNNY     91  72  53 W9        30.11F HX  98           


...CENTRAL ARKANSAS...
  
CITY           SKY/WX    TMP DP  RH WIND       PRES   REMARKS
LITTLE ROCK    MOSUNNY   95  71  45 VRB6      30.10F HX 102           


SKY/WX REPORTED AS FAIR MEANS FEW OR NO CLOUDS BELOW
12 THOUSAND FEET.

  

Return to Home page


Western Regional Climate Center, wrcc@dri.edu